This demonstration page uses our WeatherBlox Daily Observations layout. Learn more.

Left ArrowRight Arrow

31.31129, -92.44514

Hourly Observations for October 27, 2018

Temp ( °F °C ) Dew Point ( °F °C ) Humidity (%) Winds ( mph kmh ) Pressure ( in mb ) Visibility ( mi km ) Precip ( " mm )
12:36 am 00:36 Mostly Cloudy with Mist and Fog 52 11.1 50 10 93 93 Calm 29.97 1015 1 2 0.00 0.00
12:43 am 00:43 Mostly Cloudy with Fog 51 10.6 50 10 96 96 Calm 29.97 1015 1 1 0.00 0.00
12:48 am 00:48 Mostly Clear with Mist and Fog 52 11 50 10 94 94 Calm 29.97 1015 1 2 0.00 0.00
12:50 am 00:50 Mostly Clear with Mist and Fog 52 11 50 10 94 94 Calm 29.97 1015 4 6 0.00 0.00
12:53 am 00:53 Mostly Clear with Mist and Fog 52 11.1 51 10.6 97 97 Calm 29.98 1015 6 10 0.00 0.00
1:53 am 01:53 Clear 51 10.6 50 10 96 96 Calm 29.98 1015 10 16 0.00 0.00
2:53 am 02:53 Mostly Clear 50 10 48 8.9 93 93 Calm 29.98 1015 10 16 0.00 0.00
3:22 am 03:22 Clear with Mist and Fog 49 9.4 48 8.9 97 97 Calm 29.97 1015 2 3 0.00 0.00
3:36 am 03:36 Clear with Mist and Fog 49 9.4 48 8.9 97 97 Calm 29.97 1015 3 5 0.00 0.00
3:53 am 03:53 Mostly Clear with Mist and Fog 49 9.4 47 8.3 93 93 Calm 29.99 1016 1 2 0.00 0.00
3:55 am 03:55 Mostly Cloudy with Mist and Fog 49 9.4 48 8.9 97 97 Calm 29.97 1015 1 1 0.00 0.00
4:31 am 04:31 Mostly Cloudy with Mist and Fog 49 9.4 48 8.9 97 97 Calm 29.97 1015 1 2 0.00 0.00
4:38 am 04:38 Mostly Cloudy with Fog 50 10 49 9.4 96 96 Calm 29.97 1015 1 1 0.00 0.00
4:53 am 04:53 Mostly Cloudy with Fog 49 9.4 48 8.9 97 97 Calm 30.00 1016 1 1 0.00 0.00
5:00 am 05:00 Mostly Cloudy with Fog 49 9.4 48 8.9 97 97 Calm 30.00 1016 0 0 0.00 0.00
5:08 am 05:08 Mostly Cloudy with Fog 50 10 48 8.9 93 93 Calm 30.00 1016 1 1 0.00 0.00
5:27 am 05:27 Mostly Clear with Mist and Fog 49 9.4 48 8.9 97 97 Calm 30.00 1016 1 2 0.00 0.00
5:33 am 05:33 Mostly Clear with Mist and Fog 49 9.4 48 8.9 97 97 Calm 30.00 1016 3 5 0.00 0.00
5:43 am 05:43 Mostly Cloudy with Mist and Fog 47 8.3 47 8.3 100 100 Calm 30.00 1016 2 3 0.00 0.00
5:51 am 05:51 Mostly Cloudy with Fog 48 9 46 8 94 94 Calm 30.00 1016 1 1 0.00 0.00
5:53 am 05:53 Mostly Cloudy with Mist and Fog 48 8.9 47 8.3 96 96 Calm 30.01 1016 1 1 0.00 0.00
5:56 am 05:56 Mostly Cloudy with Mist and Fog 48 8.9 47 8.3 96 96 Calm 30.00 1016 2 3 0.00 0.00
6:03 am 06:03 Mostly Cloudy 49 9.4 48 8.9 97 97 Calm 30.00 1016 8 13 0.00 0.00
6:10 am 06:10 Partly Cloudy 49 9.4 48 8.9 97 97 Calm 30.00 1016 9 14 0.00 0.00
6:53 am 06:53 Partly Cloudy with Mist and Fog 47 8.3 46 7.8 97 97 Calm 30.01 1016 5 8 0.00 0.00
7:53 am 07:53 Mostly Sunny 49 9.4 47 8.3 93 93 Calm 30.04 1017 7 11 0.00 0.00
8:53 am 08:53 Sunny 54 12.2 53 11.7 97 97 Calm 30.06 1018 9 14 0.00 0.00
9:53 am 09:53 Sunny 61 16.1 55 12.8 81 81 Calm 30.07 1018 10 16 0.00 0.00
10:53 am 10:53 Sunny 66 18.9 54 12.2 65 65 Calm 30.07 1018 10 16 0.00 0.00
11:53 am 11:53 Sunny 71 21.7 55 12.8 57 57 VRB 5 7 30.08 1019 10 16 0.00 0.00
12:53 pm 12:53 Sunny 74 23.3 55 12.8 52 52 WSW 8 13 30.05 1018 10 16 0.00 0.00
1:53 pm 13:53 Sunny 76 24.4 54 12.2 47 47 WSW 7 11 30.01 1016 10 16 0.00 0.00
2:53 pm 14:53 Sunny 78 25.6 53 11.7 42 42 SSW 8 13 30.00 1016 10 16 0.00 0.00
3:53 pm 15:53 Sunny 78 25.6 53 11.7 42 42 W 9 15 29.98 1015 10 16 0.00 0.00
4:53 pm 16:53 Sunny 78 25.6 52 11.1 40 40 SW 7 11 29.99 1016 10 16 0.00 0.00
5:53 pm 17:53 Sunny 74 23.3 56 13.3 54 54 WSW 5 7 30.00 1016 10 16 0.00 0.00
6:53 pm 18:53 Clear 67 19.4 57 13.9 71 71 SSW 6 9 30.02 1017 10 16 0.00 0.00
7:53 pm 19:53 Clear 63 17.2 58 14.4 84 84 S 7 11 30.04 1017 10 16 0.00 0.00
8:53 pm 20:53 Clear 61 16.1 57 13.9 87 87 SSE 6 9 30.06 1018 10 16 0.00 0.00
9:53 pm 21:53 Clear 60 15.6 57 13.9 90 90 SE 6 9 30.07 1018 10 16 0.00 0.00
10:53 pm 22:53 Clear 60 15.6 57 13.9 90 90 SE 5 7 30.08 1019 10 16 0.00 0.00
11:53 pm 23:53 Clear 60 15.6 57 13.9 90 90 Calm 30.08 1019 10 16 0.00 0.00

Powered by AerisWeather